Preview of NWS' New Version of Forecast
This preview is not operational and should not be used for support decisions.

Regional Weather Roundup (RWR)

Issued by National Weather Service (NWS)

                            
000
ASUS42 KTBW 211517
RWRFL 
FLORIDA REGIONAL WEATHER ROUNDUP
NATIONAL WEATHER SERVICE TAMPA BAY RUSKIN FL
1100 AM EDT SAT SEP 21 2019

NOTE: "FAIR" INDICATES FEW OR NO CLOUDS BELOW 12,000 FEET WITH NO
SIGNIFICANT WEATHER AND/OR OBSTRUCTIONS TO VISIBILITY.

FLZ001>010-012>015-112-114-115-211600-
PANHANDLE FLORIDA
  
CITY           SKY/WX    TMP DP  RH WIND       PRES   REMARKS
PENSACOLA      FAIR      83  71  67 E9G20     30.21S                  
PENSACOLA NAS  PTSUNNY   83  73  72 E18       30.20S                  
MILTON NAS     FAIR      82  67  60 E13       30.23S                  
CRESTVIEW      FAIR      84  66  54 E8        30.26R                  
DUKE FIELD     FAIR      82  65  55 E10G18    30.23S                  
VALPARAISO     FAIR      82  66  58 E14       30.22S                  
MARY ESTHER    SUNNY     82  70  66 E12G20    30.21R                  
PANAMA CITY    FAIR      83  66  56 E12       30.22S                  
TYNDALL AFB    FAIR      82  67  61 E12       30.22S                  
APALACHICOLA   FAIR      83  68  60 E13G23    30.22R                  

STATION/POSITION SKY/WX   TEMP    WIND        PRES    WAVE   SWELL
                          AIR SEA DIR/SP/G            HT/PER HT/PER
                          (F)     (DEG/KT/KT) (MB)    (FT/S) (FT/S)
30.1N   87.6W              81 84   90/ 19/ 23 1022.3F   7/ 7   2/27
29.2N   88.2W              83     110/ 19/ 25 1021.1R   7/ 7   2/19
28.8N   86.0W                 85  100/ 19/ 23 1021.6R   8/ 8   3/13
PANAMA CITY BEAC           78 82  110/ 12/ 14 1024.1R
TOWER C                    79      80/ 20/ 22 1023.3R
28.5N   84.5W              81      70/ 17/ 21 1022.3R   6/ 6

$$
FLZ011-016>038-118-127-128-134-139-239-211600-
NORTH FLORIDA
  
CITY           SKY/WX    TMP DP  RH WIND       PRES   REMARKS
MARIANNA       FAIR      82  67  60 SE12      30.25S                  
TALLAHASSEE    PTSUNNY   82  66  58 E15       30.25S                  
PERRY          FAIR      82  68  63 E9        30.25S                  
LIVE OAK       CLOUDY    82  64  54 NE7G14    30.25S                  
CROSS CITY       N/A     83  67  59 E8        30.22S                  
LAKE CITY      PTSUNNY   81  64  57 NE12G17   30.24S                  
GAINESVILLE    PTSUNNY   83  66  56 NE10      30.24F                  
WILLISTON      FAIR      82  67  60 NE12G17   30.21S                  
PALATKA        PTSUNNY   81  64  57 E15G21    30.22F                  
MAYPORT NAS    CLOUDY    83  63  50 E17       30.25R                  
JACKSONVILLE   PTSUNNY   82  65  56 E12       30.25R                  
JAX NAS        FAIR      84  64  50 E17G23    30.24R                  
JAX CECIL      MOSUNNY   86  64  48 E8        30.24R                  
FERNANDINA BEA PTSUNNY   83  64  50 E15       30.26R                  
ST AUGUSTINE   PTSUNNY   82 N/A N/A E15       30.24S                  
PALM COAST     SUNNY     82  63  51 E16       30.22R                  

STATION/POSITION SKY/WX   TEMP    WIND        PRES    WAVE   SWELL
                          AIR SEA DIR/SP/G            HT/PER HT/PER
                          (F)     (DEG/KT/KT) (MB)    (FT/S) (FT/S)
SHELL POINT      NOT AVBL
KEATON BEACH               80      70/ 10/ 14 1024.0R
CEDAR KEY                  77      70/ 12/ 14 1022.8R
FERNANDINA                 86 80   40/  4/ 11 1025.3R
30.7N   81.3W                 81                N/A     5/ 6   2/13
MAYPORT                    81 81   80/ 12/ 18 1024.6
31.4N   80.9W              79 81   60/ 16/ 19 1025.2R   5/ 7   3/15
ST AUGUSTINE               80 80   70/ 20/ 22 1024.0R

$$
FLZ040-043>046-052-053-057-058-063-144-211600-
INTERIOR CENTRAL FLORIDA
  
CITY           SKY/WX    TMP DP  RH WIND       PRES   REMARKS
LEESBURG       FAIR      85  65  51 NE14      30.20S                  
SANFORD        PTSUNNY   83  64  52 E18G28    30.19S                  
ORLANDO EXEC   PTSUNNY   85  67  54 E20G25    30.19S                  
ORLANDO INTL   FAIR      84  65  52 E16       30.18S                  
KISSIMMEE      FAIR      84  66  54 E16G24    30.19S                  
WINTER HAVEN   FAIR      85  65  51 E15       30.18S                  
LAKELAND       SUNNY     82  64  54 NE13      30.17S                  
SEBRING        PTSUNNY   84  69  60 E21       30.15S                  
OKEECHOBEE     FAIR      82  70  65 NE13G20   30.14R                  

$$
FLZ041-047-054-059-064-141-147-211600-
EAST CENTRAL FLORIDA
  
CITY           SKY/WX    TMP DP  RH WIND       PRES   REMARKS
ORMOND BEACH   CLOUDY    82  63  51 E17G23    30.22R                  
DAYTONA BEACH  PTSUNNY   82  64  54 NE24G30   30.21R                  
DELAND         PTSUNNY   82  64  54 E20G26    30.20S                  
NEW SMYRNA BEA MOSUNNY   84  64  51 E17G31    30.22R                  
JFK SPACE CTR  SUNNY     83  66  55 E15G21    30.19R                  
TITUSVILLE     PTSUNNY   88  64  45 E17       30.20R                  
CAPE CANAVERAL FAIR      83  67  58 E18G24    30.17S                  
PATRICK AFB    FAIR      82  69  64 NE16G22   30.17S                  
MELBOURNE      CLOUDY    83  67  58 NE20      30.17R                  
VERO BEACH     FAIR      86  70  58 E14G22    30.16R                  
FT PIERCE      FAIR      84  69  60 E17G24    30.14S                  
STUART         MOSUNNY   84  70  61 E18G29    30.15R                  

STATION/POSITION SKY/WX   TEMP    WIND        PRES    WAVE   SWELL
                          AIR SEA DIR/SP/G            HT/PER HT/PER
                          (F)     (DEG/KT/KT) (MB)    (FT/S) (FT/S)
28.5N   80.2W              80 83   60/ 17/ 21 1022.4F  10/14   8/14
28.9N   78.5W              79 80   60/ 19/ 23 1023.1R  10/14   8/14
TRIDENT PIER               82 81   50/ 13/ 18 1023.4R
28.4N   80.5W                 81                N/A     5/13   2/13
27.5N   80.2W                 82                N/A     8/14   5/14

$$
FLZ050-056-061-142-242-148-248-149-249-151-251-155-255-
160-260-211600-
WEST CENTRAL FLORIDA
  
CITY           SKY/WX    TMP DP  RH WIND       PRES   REMARKS
CRYSTAL RIVER  FAIR      82  64  54 E10G21    30.19S                  
INVERNESS      FAIR      82  68  61 E7G17     30.19F HAZE             
BROOKSVILLE    FAIR      83  65  54 E15G23    30.18F                  
CLEARWATER AIR FAIR      81  64  57 E13       30.16S                  
ST PETE CLEARW FAIR      83  66  56 E12       30.15F                  
TAMPA INTL     FAIR      83  65  54 NE9G17    30.16F                  
TAMPA EXEC     FAIR      84  70  61 E10G18    30.17S                  
PLANT CITY     FAIR      84  70  61 E15G21    30.18F                  
MACDILL AFB    FAIR      83  67  59 E14       30.15S                  
PETER O KNIGHT PTSUNNY   84  70  61 E14G22    30.16F                  
ST PETERSBURG  FAIR      81  69  67 E17       30.14S                  
SARASOTA       FAIR      85  68  56 E12G24    30.11F                  
VENICE         FAIR      86  70  58 E18G26    30.12F                  

STATION/POSITION SKY/WX   TEMP    WIND        PRES    WAVE   SWELL
                          AIR SEA DIR/SP/G            HT/PER HT/PER
                          (F)     (DEG/KT/KT) (MB)    (FT/S) (FT/S)
27.3N   84.2W                 84                N/A     7/ 7
CLEARWATER BEACH           81 83   70/ 10/ 14 1021.4F
MIDDLE TAMPA BAY           79      90/ 17/ 19 1021.2
VENICE                     83 84   50/ 15/ 19 1019.8F

$$
FLZ066-069-070-075>078-162-262-165-265-211600-
SOUTHWEST FLORIDA AND KEYS
  
CITY           SKY/WX    TMP DP  RH WIND       PRES   REMARKS
PUNTA GORDA    FAIR      85  69  58 E20G29    30.13F                  
FT MYERS       FAIR      85  69  58 E20G25    30.09F                  
SOUTHWEST INTL FAIR      85  71  63 E22G29    30.10F                  
NAPLES         FAIR      87  73  62 NE21      30.07F                  
MARCO ISLAND   PTSUNNY   84  72  65 NE15      30.09S                  
IMMOKALEE      FAIR      88  72  58 NE21      30.08S                  
MARATHON       LGT RAIN  82  77  84 NE17G25   30.03S                  
KEY WEST NAS   PTSUNNY   84  76  76 NE15      30.03R                  
KEY WEST INTL  FAIR      85  76  74 NE14G23   30.03R                  

STATION/POSITION SKY/WX   TEMP    WIND        PRES    WAVE   SWELL
                          AIR SEA DIR/SP/G            HT/PER HT/PER
                          (F)     (DEG/KT/KT) (MB)    (FT/S) (FT/S)
NAPLES                     83 82   60/  9/ 19 1018.8R
26.0N   85.6W              82 85   80/ 21/ 27 1018.6
DRY TORTUGAS               83      70/ 24/ 29 1017.1R
SAND KEY                   81      80/ 26/ 33 1015.0R
SOMBRERO KEY               82      80/ 25/ 35 1016.2F
LONG KEY                   82                 1015.9F

$$
FLZ067-068-071>074-168-172>174-211600-
SOUTHEAST FLORIDA 
  
CITY           SKY/WX    TMP DP  RH WIND       PRES   REMARKS
W PALM BEACH   PTSUNNY   83  71  67 NE22G28   30.12S                  
BOCA RATON     MOSUNNY   79  73  83 E23G35    30.11R                  
FT LAUDER-EXEC LGT RAIN  85  73  67 NE17G30   30.08F                  
FT LAUDERDALE  PTSUNNY   83  74  74 NE18G28   30.08R                  
POMPANO BEACH  FAIR      85  74  69 NE20G26   30.10R                  
PEMBROKE PINES PTSUNNY   87  73  62 NE23G32   30.09S                  
OPA LOCKA      FAIR      85  75  72 NE20G30   30.08S                  
MIAMI          PTSUNNY   84  72  67 NE18G25   30.08R                  
WEST KENDALL   CLOUDY    82  78  88 NE14G24   30.06F                  
HOMESTEAD      PTSUNNY   84  77  79 NE20G26   30.04F                  

STATION/POSITION SKY/WX   TEMP    WIND        PRES    WAVE   SWELL
                          AIR SEA DIR/SP/G            HT/PER HT/PER
                          (F)     (DEG/KT/KT) (MB)    (FT/S) (FT/S)
VIRGINIA KEY               82 83   30/ 14/ 23 1017.8
LAKE WORTH                 80 81   60/ 21/ 23 1020.8R
FOWEY ROCKS                82 84   40/ 25/ 27 1018.0S
SETTLEMENT POINT           79      60/ 19/ 22 1019.7R

$$